SCP
0 0 0 0 0 -0 0 0 -0 0 0 -0 0 0 0 0 0 0 0 0 0 0 0 0 0 0 0 0 0 0 0 0 0 0 0 0 0 0 0 0 0 0 -0 0
0 0 0 0 0 0 0 0 -0 0 -0 -0 0 0 0 0 0 0 0 0 0 0 0 0 0 0 0 0 0 0 0 0 0 0 0 0 0 0 0 0 0 0 0 0
0 0 0 0 0 0 0 0 -0 0 0 0 0 0 0 0 0 0 0 0 0 0 0 0 0 0 0 -0 0 0 0 0 0 0 0 0 0 0 0 0 0 0 0 0
0 0 0 0 0 0 0 0 0 0 0 0 0 0 0 0 0 0 0 0 0 0 0 0 0 0 0 -0 0 0 0 0 0 0 0 0 0 0 0 0 0 0 0 0
0 0 -0 0 0 0 0 0 0 0 0 0 0 0 0 0 0 0 0 0 0 0 0 0 0 0 0 0 -0 0 0 0 0 0 0 0 0 0 0 0 0 0 0 0
0 0 0 0 0 0 0 0 0 0 0 0 -0 0 0 0 -0 0 0 0 0 0 0 0 0 0 0 0 0 0 0 0 0 0 0 0 0 0 0 0 0 0 0 0
-0 0 0 0 0 0 -0 0 -0 -0 0 0 0 0 0 0 0 0 0 0 0 0 0 0 0 0 0 0 0 0 0 0 0 0 0 0 0 0 0 0 0 0 0 0
0 0 0 0 0 0 0 0 -0 -0 -0 0 0 0 0 0 0 0 0 0 0 0 -0 -0 0 0 0 0 0 0 0 0 0 0 0 0 0 0 0 0 0 0 0 1
0 0 0 0 0 0 0 0 -0 0 0 0 0 0 0 -0 0 0 0 0 0 0 0 -0 -0 0 0 0 -0 -0 0 0 0 0 0 0 0 0 1 0 0 1 1 1
0 0 0 0 0 -0 0 0 -0 0 0 0 0 0 0 0 0 0 0 0 0 0 0 0 0 0 0 0 0 -0 0 0 0 0 0 0 0 0 0 1 1 1 1 1
0 0 0 0 0 -0 0 0 -0 0 0 0 0 0 0 0 -0 0 0 0 0 0 0 0 -0 0 0 0 0 0 0 0 0 0 0 0 0 1 1 1 1 1 1 1
0 0 0 0 0 0 0 -0 -0 -0 0 0 0 0 -0 0 -0 0 0 0 0 0 0 0 0 -0 0 0 0 0 0 0 0 0 0 1 0 0 0 0 0 0 0 0
0 0 0 0 0 -0 0 0 0 0 -0 0 0 0 0 -0 0 -0 0 0 0 0 0 0 0 0 0 -0 0 0 0 0 0 0 0 0 0 0 0 0 0 0 0 0
0 -0 -0 0 0 -0 -0 0 -0 -0 -0 -0 0 0 -0 -0 -0 0 0 0 0 0 0 0 0 0 0 0 0 0 0 0 0 0 0 0 -0 0 0 0 0 0 0 0
-0 -0 0 0 0 -0 0 0 -0 0 0 0 0 0 0 -0 0 0 0 0 0 0 0 0 0 0 0 0 0 0 0 0 0 0 0 0 0 0 0 0 0 0 0 0
-0 -0 0 0 -0 -0 0 0 -0 0 0 0 0 -0 0 -0 0 0 0 0 0 0 0 0 0 -0 -0 0 -0 -0 0 0 0 0 0 0 0 0 0 0 0 0 0 0
-0 -0 -0 0 0 -0 -0 -0 0 -0 -0 0 0 0 0 0 0 -0 0 0 0 0 0 0 0 0 0 0 0 0 0 0 0 0 0 0 0 0 0 0 0 0 0 0
-0 -0 -0 -0 -0 -0 -0 0 0 -0 -0 -0 -0 0 0 -0 0 0 -0 0 0 0 0 0 0 0 0 0 -0 0 0 0 0 0 0 0 0 0 0 0 0 0 0 0
-0 -0 -0 -0 -0 -0 -0 -0 -0 -0 0 0 -0 0 0 -0 -0 0 -0 0 0 0 0 0 0 0 -0 -0 0 -0 0 0 0 0 0 0 0 0 0 0 0 0 0 0
-0 -0 0 0 0 -0 0 -0 -0 0 -0 -0 -0 0 0 -0 0 -0 0 0 0 0 0 0 0 0 0 -0 -0 0 0 0 0 0 0 0 0 0 0 0 0 0 0 0
0 0 0 0 0 0 -0 -0 -0 0 0 -0 -0 -0 -0 -0 -0 -0 0 0 0 0 0 0 0 0 0 0 -0 -0 0 -0 -0 0 0 0 0 0 0 0 0 0 0 0
0 -0 0 -0 -0 0 0 0 0 0 0 0 0 0 -0 -0 -0 -0 0 0 0 0 0 0 0 0 0 0 -0 -0 -0 0 -0 0 0 0 0 0 0 0 0 0 0 0
-0 0 0 0 0 0 0 0 0 0 0 0 0 0 0 0 0 0 0 0 0 0 0 0 0 0 0 0 0 -0 -0 -0 0 0 0 0 0 0 0 0 0 0 0 0
0 0 0 0 0 0 0 0 0 0 0 0 0 0 0 0 0 0 0 0 0 0 0 0 0 0 0 0 0 0 -0 -0 0 0 0 -0 0 0 0 0 0 0 0 0
0 0 0 0 0 0 0 0 0 0 0 0 0 0 0 0 0 0 0 0 0 0 0 0 0 0 0 0 0 0 0 -0 -0 -0 0 0 0 -0 -0 -0 -0 0 0 0
0 0 0 0 0 0 0 0 0 0 0 0 0 0 0 0 0 0 0 0 0 0 0 0 0 0 0 0 0 -0 0 -0 -0 0 0 0 0 0 0 0 0 0 0 0
0 0 0 0 0 0 0 0 0 0 0 0 0 0 0 0 0 0 0 0 0 0 0 0 0 0 0 0 0 0 0 0 -0 0 0 0 0 -0 -0 0 0 0 0 0
Wind_Speed_500mb
41 46 51 47 48 44 24 21 11 1 4 19 25 5 13 9 7 3 7 9 19 21 22 16 26 13 17 11 12 19 21 24 29 43 20 36 35 40 38 24 35 30 30 4
42 47 48 43 41 45 41 15 26 1 5 11 15 17 4 9 16 9 12 10 4 18 20 10 28 12 19 17 13 15 22 14 23 31 29 34 40 43 40 35 32 37 29 7
43 45 45 37 33 33 28 15 7 13 3 9 14 19 13 6 10 15 12 22 12 19 16 12 16 18 8 5 16 22 10 18 28 23 30 24 40 44 43 43 26 33 36 33
34 39 40 31 25 23 19 11 11 12 11 17 19 11 16 15 5 7 11 10 9 20 18 24 16 21 8 11 11 15 11 26 34 39 36 31 30 42 51 41 42 36 34 27
28 35 35 26 20 9 7 15 14 14 4 9 13 8 15 14 12 9 13 8 21 25 12 23 26 29 4 16 17 19 23 26 28 32 29 36 28 26 39 41 36 41 42 20
26 32 29 22 14 9 7 14 11 12 6 10 11 14 10 9 7 9 8 13 15 19 25 18 21 40 32 21 12 17 23 19 19 31 29 30 30 31 24 29 40 36 33 17
22 29 24 17 12 4 3 14 11 20 10 8 15 10 9 10 21 16 10 11 11 16 21 26 32 42 37 30 26 25 23 19 17 23 27 36 25 30 27 26 28 25 35 31
20 25 18 14 8 7 6 9 10 19 12 17 12 10 13 13 9 3 10 9 13 19 28 22 22 23 30 34 32 29 30 21 17 19 24 26 37 22 23 35 30 24 27 22
18 23 14 11 6 7 10 9 3 12 19 12 13 7 5 15 14 14 6 6 8 14 24 9 10 6 3 16 30 32 28 22 18 18 28 39 20 24 52 28 23 32 36 27
16 20 13 8 6 12 12 4 2 7 23 10 5 5 3 5 5 8 6 3 3 9 6 6 13 2 14 9 11 29 23 22 24 24 17 6 20 27 42 18 14 27 26 27
14 17 11 7 8 15 13 2 5 3 13 8 4 2 4 3 9 5 7 4 6 8 5 6 8 13 7 12 13 8 16 19 19 22 31 22 29 13 13 17 41 40 32 27
12 13 10 7 9 14 19 2 9 4 8 12 6 7 7 3 8 7 9 8 8 12 5 3 8 8 10 23 13 5 11 8 8 5 13 25 31 29 28 32 31 41 33 40
10 10 9 9 11 23 14 10 1 3 10 8 10 14 12 12 8 1 2 7 6 10 8 5 4 9 12 9 12 19 16 28 14 17 26 22 23 26 24 25 28 23 25 29
9 8 10 14 14 20 17 6 4 2 11 11 19 8 16 16 13 6 6 24 21 19 12 6 3 7 17 9 14 17 11 24 19 21 14 8 25 21 26 26 22 27 20 19
9 6 17 19 18 22 14 3 1 6 8 12 15 12 19 17 18 12 10 17 13 9 8 5 4 9 8 12 11 11 14 13 10 5 36 23 19 21 22 26 29 19 15 15
12 16 25 26 22 19 12 2 2 2 6 10 6 18 24 23 21 16 16 15 12 9 11 9 8 4 4 2 4 5 19 25 28 25 45 18 18 16 11 18 19 5 16 27
11 28 30 29 21 17 4 3 10 3 5 8 10 16 18 27 23 26 22 30 18 11 5 10 12 10 12 2 3 22 35 32 34 37 23 18 7 10 13 8 16 5 9 10
28 30 29 25 17 6 1 7 7 2 3 8 8 7 19 30 28 22 14 11 1 6 7 15 12 18 7 2 12 17 26 24 20 6 3 1 5 8 13 13 6 9 21 15
31 31 26 18 5 5 7 8 4 4 3 9 8 3 4 22 25 16 36 18 8 6 9 14 17 5 2 6 7 11 22 11 32 9 1 3 5 12 11 20 14 18 20 15
39 31 5 8 9 10 3 3 6 6 5 9 10 9 9 13 12 23 17 13 4 6 11 8 3 7 5 18 14 12 29 12 17 9 5 10 2 10 7 22 6 14 14 12
19 8 5 9 8 5 4 5 6 7 7 12 17 18 8 7 3 7 10 8 7 5 8 9 6 6 13 16 21 26 41 32 11 3 10 8 4 9 6 11 5 15 14 15
8 6 12 12 5 4 5 6 7 8 6 17 19 18 14 7 7 8 6 2 8 4 10 5 6 11 20 21 18 21 29 27 48 47 13 10 15 17 16 13 15 16 16 17
8 4 6 6 9 8 8 9 7 7 13 12 16 13 9 9 11 2 4 5 2 4 4 4 8 25 25 21 19 17 19 20 26 33 46 44 42 23 26 28 29 25 22 22
5 7 4 9 9 11 10 14 7 9 10 24 16 12 5 1 4 4 5 3 1 5 3 4 16 27 25 24 21 22 22 25 23 19 20 31 32 27 31 39 27 28 30 26
7 9 8 15 14 7 8 8 14 13 21 25 16 8 2 3 5 5 4 9 4 6 3 9 27 26 23 19 21 9 16 18 19 25 28 29 30 32 29 21 24 30 26 31
6 11 14 20 15 9 20 21 22 18 23 20 10 5 4 6 5 9 4 8 5 5 14 27 29 23 20 16 14 18 24 17 21 26 22 21 17 19 20 20 21 20 22 24
8 12 32 23 10 12 30 27 23 17 8 3 6 7 8 7 2 3 4 5 11 38 29 30 27 23 16 16 21 21 22 21 17 17 16 15 13 7 7 11 9 13 17 16
Wind_Direction_500mb
328 333 340 341 340 345 336 295 273 46 316 252 233 2 36 350 359 39 313 299 300 310 331 279 269 38 74 40 350 293 267 277 260 269 198 225 229 225 237 229 237 250 262 63
326 332 339 342 343 343 348 290 298 320 290 283 324 94 136 331 344 14 336 314 307 350 301 290 283 27 75 27 339 23 340 235 251 258 265 216 228 242 225 244 237 240 256 111
322 327 335 341 342 339 339 292 276 175 212 326 312 339 279 143 109 305 335 314 350 301 273 255 288 279 104 33 293 355 300 273 274 255 239 316 209 229 240 235 233 241 238 135
310 321 331 338 340 340 340 266 33 353 346 29 330 351 348 308 149 50 306 287 252 291 305 281 232 258 194 188 199 256 247 269 276 280 303 300 292 213 225 232 233 239 239 175
312 322 328 337 338 1 347 319 349 342 341 337 283 124 80 311 56 6 348 330 348 315 338 351 343 342 227 271 180 240 256 265 281 284 292 284 275 280 223 235 229 241 256 250
313 322 326 335 336 31 334 346 299 284 132 228 266 60 63 87 345 79 28 322 316 297 8 330 320 310 317 307 329 298 293 276 256 264 260 258 257 253 259 237 237 234 240 79
308 320 321 328 322 280 189 326 300 276 257 310 42 109 125 96 25 344 69 333 6 345 308 292 272 272 263 274 269 260 267 281 275 273 261 248 238 226 247 260 267 270 250 95
301 316 312 316 309 166 91 333 301 302 310 74 134 162 121 116 137 305 323 44 1 319 292 271 259 236 243 234 235 233 247 252 262 250 253 263 246 216 227 225 244 273 298 57
299 314 299 304 286 162 105 321 260 294 303 69 83 162 255 268 176 149 162 79 334 322 306 100 264 298 224 232 210 214 218 228 253 255 240 239 37 344 345 322 202 17 9 21
296 308 281 284 238 164 133 354 329 297 292 91 203 311 155 327 316 166 142 105 334 332 344 311 289 211 311 242 220 175 202 216 218 234 253 146 354 331 327 248 26 355 14 21
283 306 272 259 218 151 124 256 217 32 314 111 213 263 147 168 278 355 66 31 347 7 333 333 319 324 315 269 142 234 205 196 224 229 237 240 358 51 3 345 351 7 5 11
277 300 251 232 206 148 122 56 306 213 297 64 174 196 232 283 2 21 99 117 65 19 63 9 303 318 313 323 302 8 243 317 274 215 220 69 49 71 51 22 5 11 15 2
269 293 225 210 185 155 130 100 341 354 266 192 198 221 223 202 190 77 344 84 73 80 77 77 297 276 315 281 308 332 309 22 304 320 84 69 49 54 51 37 23 20 20 11
267 303 196 194 176 158 146 95 267 246 298 287 165 153 180 180 178 159 65 124 100 116 95 115 244 276 8 341 308 312 14 304 316 276 96 122 64 32 17 25 22 24 36 31
268 270 182 173 161 147 131 117 284 322 305 331 155 170 191 187 184 177 157 133 141 122 115 132 210 304 318 351 303 272 358 344 315 34 338 348 12 2 4 5 9 12 36 44
276 183 169 162 152 136 101 182 48 77 309 279 224 99 172 187 189 195 176 183 176 200 162 168 175 222 197 326 290 273 334 305 291 282 306 321 321 327 342 352 16 4 36 46
195 162 161 161 155 151 161 169 207 272 85 253 254 160 179 193 195 213 199 197 203 200 196 155 149 178 187 253 296 329 313 309 300 286 280 272 310 314 319 302 329 276 92 62
154 156 156 158 154 105 327 265 257 23 212 250 275 128 162 189 213 215 222 128 225 243 257 158 148 152 174 221 268 318 325 307 314 280 258 36 336 281 272 289 321 147 90 74
142 138 136 124 132 230 223 261 219 120 207 294 275 269 119 171 212 212 206 167 182 215 260 184 165 118 39 303 299 340 351 315 315 276 57 307 27 343 302 338 302 85 67 48
135 125 120 161 192 214 219 28 160 171 212 244 262 258 206 224 168 202 143 190 191 202 218 116 83 83 25 58 75 85 21 332 327 299 18 327 159 28 330 332 358 88 84 58
123 184 190 174 171 141 205 206 205 182 220 225 233 253 266 274 242 242 186 191 179 221 194 176 140 105 102 81 85 101 56 44 48 112 51 60 44 55 69 304 37 85 79 67
191 189 141 152 164 202 228 200 182 221 250 196 202 200 211 259 265 239 263 17 196 224 155 142 92 122 112 104 94 106 96 78 68 60 80 93 91 56 28 123 79 96 94 77
144 163 142 168 180 214 214 194 214 215 198 206 177 176 186 217 246 242 256 247 230 96 132 101 116 136 124 106 98 91 116 99 76 82 64 66 68 52 50 68 71 66 72 68
198 171 226 226 194 231 200 213 206 200 175 156 173 155 228 177 255 229 240 91 359 57 64 126 145 142 126 120 113 95 71 67 89 94 100 80 77 73 61 55 54 59 57 63
250 219 241 219 250 216 305 151 112 126 143 142 132 105 83 205 236 227 198 169 95 119 109 104 136 147 137 126 125 106 81 75 71 74 68 65 68 73 74 72 67 63 60 59
271 248 278 335 351 271 167 115 106 128 125 110 99 126 228 216 247 201 194 107 128 92 127 115 126 147 141 136 127 97 89 88 80 68 67 54 59 62 52 53 56 60 61 60
282 338 357 37 47 32 73 84 75 84 100 101 135 193 196 205 118 94 31 92 141 105 97 94 105 117 139 139 120 107 101 93 72 61 52 39 57 67 66 81 45 46 51 55
Wind_Speed_850mb
41 46 51 47 48 44 24 21 11 1 4 19 25 5 13 9 7 3 7 9 19 21 22 16 26 13 17 11 12 19 21 24 29 43 20 36 35 40 38 24 35 30 30 4
42 47 48 43 41 45 41 15 26 1 5 11 15 17 4 9 16 9 12 10 4 18 20 10 28 12 19 17 13 15 22 14 23 31 29 34 40 43 40 35 32 37 29 7
43 45 45 37 33 33 28 15 7 13 3 9 14 19 13 6 10 15 12 22 12 19 16 12 16 18 8 5 16 22 10 18 28 23 30 24 40 44 43 43 26 33 36 33
34 39 40 31 25 23 19 11 11 12 11 17 19 11 16 15 5 7 11 10 9 20 18 24 16 21 8 11 11 15 11 26 34 39 36 31 30 42 51 41 42 36 34 27
28 35 35 26 20 9 7 15 14 14 4 9 13 8 15 14 12 9 13 8 21 25 12 23 26 29 4 16 17 19 23 26 28 32 29 36 28 26 39 41 36 41 42 20
26 32 29 22 14 9 7 14 11 12 6 10 11 14 10 9 7 9 8 13 15 19 25 18 21 40 32 21 12 17 23 19 19 31 29 30 30 31 24 29 40 36 33 17
22 29 24 17 12 4 3 14 11 20 10 8 15 10 9 10 21 16 10 11 11 16 21 26 32 42 37 30 26 25 23 19 17 23 27 36 25 30 27 26 28 25 35 31
20 25 18 14 8 7 6 9 10 19 12 17 12 10 13 13 9 3 10 9 13 19 28 22 22 23 30 34 32 29 30 21 17 19 24 26 37 22 23 35 30 24 27 22
18 23 14 11 6 7 10 9 3 12 19 12 13 7 5 15 14 14 6 6 8 14 24 9 10 6 3 16 30 32 28 22 18 18 28 39 20 24 52 28 23 32 36 27
16 20 13 8 6 12 12 4 2 7 23 10 5 5 3 5 5 8 6 3 3 9 6 6 13 2 14 9 11 29 23 22 24 24 17 6 20 27 42 18 14 27 26 27
14 17 11 7 8 15 13 2 5 3 13 8 4 2 4 3 9 5 7 4 6 8 5 6 8 13 7 12 13 8 16 19 19 22 31 22 29 13 13 17 41 40 32 27
12 13 10 7 9 14 19 2 9 4 8 12 6 7 7 3 8 7 9 8 8 12 5 3 8 8 10 23 13 5 11 8 8 5 13 25 31 29 28 32 31 41 33 40
10 10 9 9 11 23 14 10 1 3 10 8 10 14 12 12 8 1 2 7 6 10 8 5 4 9 12 9 12 19 16 28 14 17 26 22 23 26 24 25 28 23 25 29
9 8 10 14 14 20 17 6 4 2 11 11 19 8 16 16 13 6 6 24 21 19 12 6 3 7 17 9 14 17 11 24 19 21 14 8 25 21 26 26 22 27 20 19
9 6 17 19 18 22 14 3 1 6 8 12 15 12 19 17 18 12 10 17 13 9 8 5 4 9 8 12 11 11 14 13 10 5 36 23 19 21 22 26 29 19 15 15
12 16 25 26 22 19 12 2 2 2 6 10 6 18 24 23 21 16 16 15 12 9 11 9 8 4 4 2 4 5 19 25 28 25 45 18 18 16 11 18 19 5 16 27
11 28 30 29 21 17 4 3 10 3 5 8 10 16 18 27 23 26 22 30 18 11 5 10 12 10 12 2 3 22 35 32 34 37 23 18 7 10 13 8 16 5 9 10
28 30 29 25 17 6 1 7 7 2 3 8 8 7 19 30 28 22 14 11 1 6 7 15 12 18 7 2 12 17 26 24 20 6 3 1 5 8 13 13 6 9 21 15
31 31 26 18 5 5 7 8 4 4 3 9 8 3 4 22 25 16 36 18 8 6 9 14 17 5 2 6 7 11 22 11 32 9 1 3 5 12 11 20 14 18 20 15
39 31 5 8 9 10 3 3 6 6 5 9 10 9 9 13 12 23 17 13 4 6 11 8 3 7 5 18 14 12 29 12 17 9 5 10 2 10 7 22 6 14 14 12
19 8 5 9 8 5 4 5 6 7 7 12 17 18 8 7 3 7 10 8 7 5 8 9 6 6 13 16 21 26 41 32 11 3 10 8 4 9 6 11 5 15 14 15
8 6 12 12 5 4 5 6 7 8 6 17 19 18 14 7 7 8 6 2 8 4 10 5 6 11 20 21 18 21 29 27 48 47 13 10 15 17 16 13 15 16 16 17
8 4 6 6 9 8 8 9 7 7 13 12 16 13 9 9 11 2 4 5 2 4 4 4 8 25 25 21 19 17 19 20 26 33 46 44 42 23 26 28 29 25 22 22
5 7 4 9 9 11 10 14 7 9 10 24 16 12 5 1 4 4 5 3 1 5 3 4 16 27 25 24 21 22 22 25 23 19 20 31 32 27 31 39 27 28 30 26
7 9 8 15 14 7 8 8 14 13 21 25 16 8 2 3 5 5 4 9 4 6 3 9 27 26 23 19 21 9 16 18 19 25 28 29 30 32 29 21 24 30 26 31
6 11 14 20 15 9 20 21 22 18 23 20 10 5 4 6 5 9 4 8 5 5 14 27 29 23 20 16 14 18 24 17 21 26 22 21 17 19 20 20 21 20 22 24
8 12 32 23 10 12 30 27 23 17 8 3 6 7 8 7 2 3 4 5 11 38 29 30 27 23 16 16 21 21 22 21 17 17 16 15 13 7 7 11 9 13 17 16
Wind_Direction_850mb
328 333 340 341 340 345 336 295 273 46 316 252 233 2 36 350 359 39 313 299 300 310 331 279 269 38 74 40 350 293 267 277 260 269 198 225 229 225 237 229 237 250 262 63
326 332 339 342 343 343 348 290 298 320 290 283 324 94 136 331 344 14 336 314 307 350 301 290 283 27 75 27 339 23 340 235 251 258 265 216 228 242 225 244 237 240 256 111
322 327 335 341 342 339 339 292 276 175 212 326 312 339 279 143 109 305 335 314 350 301 273 255 288 279 104 33 293 355 300 273 274 255 239 316 209 229 240 235 233 241 238 135
310 321 331 338 340 340 340 266 33 353 346 29 330 351 348 308 149 50 306 287 252 291 305 281 232 258 194 188 199 256 247 269 276 280 303 300 292 213 225 232 233 239 239 175
312 322 328 337 338 1 347 319 349 342 341 337 283 124 80 311 56 6 348 330 348 315 338 351 343 342 227 271 180 240 256 265 281 284 292 284 275 280 223 235 229 241 256 250
313 322 326 335 336 31 334 346 299 284 132 228 266 60 63 87 345 79 28 322 316 297 8 330 320 310 317 307 329 298 293 276 256 264 260 258 257 253 259 237 237 234 240 79
308 320 321 328 322 280 189 326 300 276 257 310 42 109 125 96 25 344 69 333 6 345 308 292 272 272 263 274 269 260 267 281 275 273 261 248 238 226 247 260 267 270 250 95
301 316 312 316 309 166 91 333 301 302 310 74 134 162 121 116 137 305 323 44 1 319 292 271 259 236 243 234 235 233 247 252 262 250 253 263 246 216 227 225 244 273 298 57
299 314 299 304 286 162 105 321 260 294 303 69 83 162 255 268 176 149 162 79 334 322 306 100 264 298 224 232 210 214 218 228 253 255 240 239 37 344 345 322 202 17 9 21
296 308 281 284 238 164 133 354 329 297 292 91 203 311 155 327 316 166 142 105 334 332 344 311 289 211 311 242 220 175 202 216 218 234 253 146 354 331 327 248 26 355 14 21
283 306 272 259 218 151 124 256 217 32 314 111 213 263 147 168 278 355 66 31 347 7 333 333 319 324 315 269 142 234 205 196 224 229 237 240 358 51 3 345 351 7 5 11
277 300 251 232 206 148 122 56 306 213 297 64 174 196 232 283 2 21 99 117 65 19 63 9 303 318 313 323 302 8 243 317 274 215 220 69 49 71 51 22 5 11 15 2
269 293 225 210 185 155 130 100 341 354 266 192 198 221 223 202 190 77 344 84 73 80 77 77 297 276 315 281 308 332 309 22 304 320 84 69 49 54 51 37 23 20 20 11
267 303 196 194 176 158 146 95 267 246 298 287 165 153 180 180 178 159 65 124 100 116 95 115 244 276 8 341 308 312 14 304 316 276 96 122 64 32 17 25 22 24 36 31
268 270 182 173 161 147 131 117 284 322 305 331 155 170 191 187 184 177 157 133 141 122 115 132 210 304 318 351 303 272 358 344 315 34 338 348 12 2 4 5 9 12 36 44
276 183 169 162 152 136 101 182 48 77 309 279 224 99 172 187 189 195 176 183 176 200 162 168 175 222 197 326 290 273 334 305 291 282 306 321 321 327 342 352 16 4 36 46
195 162 161 161 155 151 161 169 207 272 85 253 254 160 179 193 195 213 199 197 203 200 196 155 149 178 187 253 296 329 313 309 300 286 280 272 310 314 319 302 329 276 92 62
154 156 156 158 154 105 327 265 257 23 212 250 275 128 162 189 213 215 222 128 225 243 257 158 148 152 174 221 268 318 325 307 314 280 258 36 336 281 272 289 321 147 90 74
142 138 136 124 132 230 223 261 219 120 207 294 275 269 119 171 212 212 206 167 182 215 260 184 165 118 39 303 299 340 351 315 315 276 57 307 27 343 302 338 302 85 67 48
135 125 120 161 192 214 219 28 160 171 212 244 262 258 206 224 168 202 143 190 191 202 218 116 83 83 25 58 75 85 21 332 327 299 18 327 159 28 330 332 358 88 84 58
123 184 190 174 171 141 205 206 205 182 220 225 233 253 266 274 242 242 186 191 179 221 194 176 140 105 102 81 85 101 56 44 48 112 51 60 44 55 69 304 37 85 79 67
191 189 141 152 164 202 228 200 182 221 250 196 202 200 211 259 265 239 263 17 196 224 155 142 92 122 112 104 94 106 96 78 68 60 80 93 91 56 28 123 79 96 94 77
144 163 142 168 180 214 214 194 214 215 198 206 177 176 186 217 246 242 256 247 230 96 132 101 116 136 124 106 98 91 116 99 76 82 64 66 68 52 50 68 71 66 72 68
198 171 226 226 194 231 200 213 206 200 175 156 173 155 228 177 255 229 240 91 359 57 64 126 145 142 126 120 113 95 71 67 89 94 100 80 77 73 61 55 54 59 57 63
250 219 241 219 250 216 305 151 112 126 143 142 132 105 83 205 236 227 198 169 95 119 109 104 136 147 137 126 125 106 81 75 71 74 68 65 68 73 74 72 67 63 60 59
271 248 278 335 351 271 167 115 106 128 125 110 99 126 228 216 247 201 194 107 128 92 127 115 126 147 141 136 127 97 89 88 80 68 67 54 59 62 52 53 56 60 61 60
282 338 357 37 47 32 73 84 75 84 100 101 135 193 196 205 118 94 31 92 141 105 97 94 105 117 139 139 120 107 101 93 72 61 52 39 57 67 66 81 45 46 51 55